Location: Unspecified
(0.0000°N, 0.0000°E)
Time: 13:11:11
(UTC+00:00)

Vanguard 3 - All Passes

Search period start: 24 April 2017 00:00
Search period end: 04 May 2017 00:00
Orbit: 507 x 3266 km, 33.4° (Epoch: 22 April)

Date Brightness Start Highest point End Pass type
(mag) Time Alt. Az. Time Alt. Az. Time Alt. Az.
24 Apr - 04:54:54 10° S 04:57:39 14° SE 05:01:01 10° ESE visible
24 Apr - 07:02:50 10° SW 07:09:07 86° NW 07:20:44 10° NE daylight
24 Apr - 09:15:52 10° W 09:24:09 31° NNW 09:37:01 10° NNE daylight
24 Apr - 11:34:33 10° NW 11:43:42 18° N 11:54:44 10° NNE daylight
24 Apr - 13:54:22 10° NNW 14:06:52 20° NNE 14:19:08 10° NE daylight
24 Apr - 16:10:45 10° NW 16:28:04 37° NNE 16:40:49 10° E daylight
24 Apr - 18:27:36 10° NW 18:45:09 84° NE 18:55:12 10° ESE visible
24 Apr - 20:48:12 10° W 20:58:24 28° SW 21:04:56 10° SSE visible
25 Apr - 05:50:25 10° SSW 05:55:25 46° SE 06:03:50 10° ENE daylight
25 Apr - 08:01:26 10° W 08:08:26 42° NNW 08:20:30 10° NE daylight
25 Apr - 10:17:30 10° NW 10:25:43 20° NNW 10:36:42 10° NNE daylight
25 Apr - 12:37:34 10° NNW 12:47:33 17° N 12:58:31 10° NE daylight
25 Apr - 14:54:26 10° NNW 15:10:08 28° NNE 15:23:43 10° ENE daylight
25 Apr - 17:10:24 10° NW 17:29:09 59° NNE 17:41:12 10° ESE daylight
25 Apr - 19:28:57 10° WNW 19:44:11 54° SW 19:52:57 10° SE visible
26 Apr - 04:39:12 10° S 04:42:16 17° SE 04:46:10 10° E visible
26 Apr - 06:47:58 10° WSW 06:53:45 69° NNW 07:04:12 10° NE daylight
26 Apr - 09:01:40 10° WNW 09:08:56 24° NNW 09:19:44 10° NNE daylight
26 Apr - 11:20:37 10° NW 11:28:36 16° N 11:38:06 10° NNE daylight
26 Apr - 13:38:25 10° NNW 13:51:26 21° NNE 14:04:29 10° ENE daylight
26 Apr - 15:53:50 10° NW 16:12:09 43° NNE 16:25:57 10° E daylight
26 Apr - 18:10:45 10° NW 18:29:08 85° SW 18:40:00 10° SE visible
26 Apr - 20:32:25 10° W 20:42:40 25° SW 20:49:30 10° SSE visible
27 Apr - 05:35:19 10° SW 05:40:02 58° SE 05:47:55 10° ENE daylight
27 Apr - 07:46:58 10° W 07:53:14 33° NNW 08:03:29 10° NE daylight
27 Apr - 10:03:49 10° NW 10:10:37 16° N 10:19:20 10° NNE daylight
27 Apr - 12:22:35 10° NNW 12:32:21 17° N 12:43:14 10° NE daylight
27 Apr - 14:37:50 10° NNW 14:54:19 32° NNE 15:08:58 10° E daylight
27 Apr - 16:53:28 10° NW 17:13:03 68° NE 17:26:03 10° ESE daylight
27 Apr - 19:12:31 10° WNW 19:28:11 48° SW 19:37:36 10° SSE visible
28 Apr - 04:23:40 10° S 04:26:55 21° SE 04:31:10 10° E visible
28 Apr - 06:33:14 10° WSW 06:38:31 51° NNW 06:47:41 10° NE daylight
28 Apr - 08:47:46 10° WNW 08:53:51 19° NNW 09:02:19 10° NNE daylight
28 Apr - 11:06:43 10° NNW 11:13:33 14° N 11:21:33 10° NNE daylight
28 Apr - 13:22:23 10° NNW 13:35:52 23° NNE 13:49:45 10° ENE daylight
28 Apr - 15:37:01 10° NW 15:56:02 49° NNE 16:10:52 10° ESE daylight
28 Apr - 17:54:01 10° WNW 18:12:58 76° SW 18:24:40 10° SE visible
28 Apr - 20:16:44 10° W 20:26:57 23° SW 20:34:00 10° S visible
29 Apr - 05:20:19 10° SW 05:24:44 77° SE 05:32:00 10° ENE visible
29 Apr - 07:32:44 10° WNW 07:38:10 25° NNW 07:46:25 10° NNE daylight
29 Apr - 09:50:34 10° NNW 09:55:38 13° N 10:01:46 10° NNE daylight
29 Apr - 12:07:24 10° NNW 12:17:06 17° NNE 12:28:06 10° NE daylight
29 Apr - 14:21:20 10° NNW 14:38:20 36° NNE 14:54:00 10° E daylight
29 Apr - 16:36:39 10° NW 16:56:47 77° NE 17:10:45 10° ESE daylight
29 Apr - 18:56:13 10° WNW 19:12:07 43° SW 19:22:10 10° SSE visible
30 Apr - 04:08:14 10° SSW 04:11:37 26° SE 04:16:04 10° E visible
30 Apr - 06:18:40 10° W 06:23:25 37° NNW 06:31:07 10° NE daylight
30 Apr - 08:34:21 10° NW 08:38:53 14° N 08:44:38 10° NNE daylight
30 Apr - 10:52:48 10° NNW 10:58:32 13° N 11:05:10 10° NNE daylight
30 Apr - 13:06:20 10° NNW 13:20:09 25° NNE 13:34:52 10° ENE daylight
30 Apr - 15:20:19 10° NW 15:39:45 56° NNE 15:55:36 10° ESE daylight
30 Apr - 17:37:24 10° WNW 17:56:40 68° SW 18:09:12 10° SE daylight
30 Apr - 20:01:10 10° W 20:11:14 21° SW 20:18:28 10° S visible
01 May - 05:05:24 10° WSW 05:09:33 76° NW 05:16:04 10° NE visible
01 May - 07:18:50 10° WNW 07:23:12 18° NNW 07:29:11 10° NNE daylight
01 May - 09:38:22 10° N 09:40:45 11° N 09:43:20 10° NNE daylight
01 May - 11:52:02 10° NNW 12:01:46 18° NNE 12:13:03 10° NE daylight
01 May - 14:04:53 10° NNW 14:22:10 40° NNE 14:38:49 10° E daylight
01 May - 16:19:58 10° NW 16:40:21 86° NE 16:55:16 10° SE daylight
01 May - 18:40:02 10° W 18:56:01 38° SW 19:06:38 10° SSE visible
02 May - 03:52:54 10° SSW 03:56:23 36° SE 04:00:53 10° ENE visible
02 May - 06:04:17 10° W 06:08:25 26° NNW 06:14:31 10° NNE daylight
02 May - 08:22:33 10° NNW 08:24:01 10° N 08:25:35 10° N daylight
02 May - 10:38:43 10° N 10:43:32 12° NNE 10:49:00 10° NNE daylight
02 May - 12:50:17 10° NNW 13:04:18 28° NNE 13:19:48 10° E daylight
02 May - 15:03:46 10° NW 15:23:18 63° NE 15:40:09 10° ESE daylight
02 May - 17:20:55 10° WNW 17:40:16 61° SW 17:53:37 10° SE daylight
02 May - 19:45:43 10° WSW 19:55:34 19° SW 20:02:53 10° S visible
03 May - 02:42:01 10° SSE 02:43:10 11° SE 02:44:20 10° SE visible
03 May - 04:50:37 10° WSW 04:54:28 51° NNW 05:00:06 10° NE visible
03 May - 07:05:42 10° NW 07:08:19 12° NNW 07:11:26 10° N daylight
03 May - 11:36:30 10° NNW 11:46:20 19° NNE 11:58:00 10° ENE daylight
03 May - 13:48:33 10° NW 14:05:52 45° NNE 14:23:25 10° E daylight
03 May - 16:03:27 10° NW 16:23:48 86° SW 16:39:38 10° SE daylight
03 May - 18:24:00 10° W 18:39:54 35° SW 18:51:00 10° SSE visible
